Location: Potawatomi Wildlife Park
(41.2308°N, 86.1050°W)
Time: 07:07:41
(UTC-04:00)

Daily predictions for brighter satellites

Satellite Brightness Start Highest point End
(mag) Time Altitude Azimuth Time Altitude Azimuth Time Altitude Azimuth
Cosmos 1937 Rocket 4.4 21:28:46 10° N 21:33:23 32° ENE 21:37:58 10° SE
Cosmos 1300 Rocket 4.0 21:29:11 10° NNW 21:33:32 67° W 21:37:48 10° S
Cosmos 1666 3.4 21:31:13 10° N 21:34:51 37° ENE 21:38:28 10° SSE
ERS-2 2.1 21:31:35 10° SSE 21:35:16 81° ENE 21:38:58 10° NNW
Cosmos 1864 Rocket 4.5 21:31:26 10° S 21:37:35 84° E 21:43:45 10° N
Cosmos 1763 Rocket 4.2 21:33:33 10° SSE 21:38:15 34° E 21:42:58 10° NE
SJ-11-01 4.3 21:42:37 10° SSE 21:47:20 89° E 21:52:07 10° NNW
Cosmos 1743 3.0 21:43:42 10° N 21:47:26 48° E 21:51:07 10° SSE
Iridium 2 4.4 21:50:16 10° SSE 21:53:45 35° E 21:57:16 10° NNE
Okean 1 3.7 21:51:04 10° SSW 21:55:06 69° W 21:59:10 10° N
Cosmos 1570 Rocket 4.4 21:51:33 10° SSW 21:56:52 72° WNW 22:02:15 10° NNE
Centaur D-1A AC-31 3.0 21:53:06 10° WSW 21:57:56 18° SSW 22:00:39 10° SSE
USA 234 3.3 21:51:45 10° NE 21:58:17 66° SE 22:04:48 10° SW
NOSS 3-2 (A) 3.9 21:53:16 10° SW 21:59:06 69° NW 22:05:39 10° NNE
Timation 2 Rocket 3.9 21:57:05 10° SSW 22:03:02 85° ESE 22:09:08 10° NNE
Lacrosse 5 rocket 3.1 21:59:49 10° NNW 22:03:27 24° NNE 22:06:54 10° E
Meteor 2-4 Rocket 4.0 21:59:57 10° SSE 22:05:04 45° E 22:10:20 10° NNE
NOSS 3-2 (C) 3.5 21:59:14 10° SW 22:05:07 85° NW 22:11:42 10° NE
Cosmos 1939 Rocket 4.4 22:01:34 10° SSW 22:05:22 36° W 22:09:13 10° NNW
ERS-1 Rocket 3.8 22:07:46 14° SE 22:11:34 35° ENE 22:16:06 10° N
Abrixas rocket 3.0 22:08:42 10° WSW 22:11:52 51° NNW 22:15:01 10° NE
ISS -1.4 22:10:25 10° W 22:13:13 25° NNW 22:16:01 10° NE
Cosmos 1898 Rocket 3.7 22:12:22 10° NNW 22:17:41 74° WSW 22:22:49 11° S
USA 245 4.4 22:16:24 17° ESE 22:18:28 29° ENE 22:22:14 10° N
Cosmos 1356 4.3 22:17:03 19° SE 22:18:52 30° E 22:21:57 10° NNE
ARGOS 3.2 22:15:18 13° SSE 22:20:07 68° ENE 22:25:30 10° N
Cosmos 2322 Rocket 2.2 22:15:54 10° NNW 22:21:32 86° WSW 22:26:19 15° SSE
Cosmos 1814 Rocket 4.0 22:16:35 10° SSW 22:21:48 78° ESE 22:27:08 10° NNE
Tiangong 2 1.3 22:18:53 10° W 22:22:01 71° N 22:25:10 10° ENE
H-2A R/B 2.2 22:19:42 16° SE 22:23:31 56° ENE 22:28:27 10° N
Cosmos 1455 Rocket 3.3 22:19:57 10° N 22:24:14 54° E 22:27:13 19° SSE
CENTAUR R/B 2.4 22:19:04 10° SSW 22:24:50 62° ESE 22:31:29 10° NE
Cosmos 1340 Rocket 2.9 22:25:14 13° S 22:28:41 57° E 22:32:42 10° NNE
Cosmos 292 Rocket 3.7 22:25:58 10° S 22:30:40 64° ESE 22:35:23 10° NNE
SL-16 R/B 2.4 22:25:20 10° NNW 22:30:58 68° WSW 22:35:43 15° S
Cosmos 990 Rocket 4.1 22:28:19 10° NNW 22:33:33 74° WSW 22:37:44 16° S
Shenzhou-11 Module 1.8 22:31:49 10° WNW 22:34:47 88° SSW 22:36:03 31° ESE
Cosmos 1975 Rocket 3.8 22:30:37 10° SSW 22:34:50 52° W 22:39:04 10° N
Cosmos 1242 Rocket 4.0 22:36:38 10° NNW 22:40:00 35° W 22:43:17 10° SSW
DMSP B5D2-2 4.4 22:35:16 10° NNE 22:40:20 44° E 22:43:34 21° SSE
Meteor 2-20 4.5 22:34:26 10° N 22:40:37 86° W 22:45:56 14° S
Meteor 1-13 Rocket 4.5 22:34:57 10° SSW 22:40:50 78° W 22:46:50 10° N
Aureole 2 Rocket 1.8 22:39:25 10° NNW 22:42:21 80° ENE 22:43:07 44° SSE
Helios 1A 3.6 22:41:57 26° SE 22:43:47 42° ENE 22:47:44 10° N
Meteor 2-20 Rocket 4.4 22:38:53 10° N 22:45:03 80° E 22:49:36 19° SSE
MetOp-B 4.2 22:44:58 18° S 22:48:59 80° WSW 22:54:22 10° NNW
Cosmos 2219 4.4 22:48:54 21° ESE 22:49:42 22° E 22:53:58 10° NE
Cosmos 1544 Rocket 3.7 22:47:10 10° NNW 22:51:36 74° W 22:54:28 21° S
Okean 2 4.1 22:50:55 31° SE 22:52:00 36° E 22:55:50 10° NNE
Meteor 1-15 Rocket 4.3 22:48:36 10° N 22:54:18 63° ENE 22:57:22 27° SSE
Cosmos 2150 Rocket 4.2 22:50:09 10° NNW 22:55:30 68° WSW 22:58:50 23° S
CZ-4C R/B 3.7 22:51:13 10° NNW 22:57:55 42° NE 23:03:19 19° ESE
SL-08 RB Rocket 4.1 22:58:56 22° S 23:01:47 59° W 23:06:19 10° NNW
SJ 16-02 1.5 22:59:22 10° N 23:03:46 61° ENE 23:05:18 38° SE
Cosmos 1356 Rocket 4.0 23:03:26 36° ESE 23:04:15 40° E 23:08:18 10° NNE
Resurs 01 Rocket 4.4 23:03:26 10° WSW 23:05:12 12° W 23:06:57 10° WNW
Cosmos 1536 Rocket 3.6 23:05:18 22° SSW 23:08:10 77° W 23:12:39 10° N
Cosmos 2360 Rocket 2.2 23:05:38 10° NNW 23:11:17 78° WSW 23:14:04 31° SSE
Cosmos 540 Rocket 3.4 23:06:54 12° SSW 23:11:39 86° WNW 23:16:52 10° NNE
Helios 1B rocket 2.5 23:08:57 10° NNE 23:13:03 58° E 23:13:58 46° SSE
CZ-2C R/B 3.9 23:09:42 10° NE 23:14:13 24° E 23:14:47 24° ESE
Cosmos 2219 Rocket 3.2 23:10:12 10° N 23:15:17 34° ENE 23:17:36 25° E
Landsat 7 3.8 23:14:40 39° SE 23:16:21 69° ENE 23:21:06 10° N
Cosmos 1092 Rocket 4.3 23:11:57 10° N 23:18:09 52° ENE 23:20:43 33° SE
Nadezhda 4 Rocket 4.0 23:14:26 10° N 23:20:48 80° E 23:23:53 33° SSE
IGS 5A 3.6 23:21:30 48° ESE 23:22:16 57° ENE 23:26:22 10° N
SPOT 5 2.9 23:28:40 40° SSW 23:30:07 64° WSW 23:34:41 10° NNW
SL-19 R/B 4.5 23:30:46 37° SSE 23:33:25 85° ENE 23:39:59 10° NNW
Terra 1.8 23:33:59 50° SE 23:35:06 70° ENE 23:39:52 10° N
Cosmos 372 Rocket 4.0 23:32:22 10° NNW 23:37:29 72° WSW 23:39:00 45° S
Cosmos 2333 Rocket 2.8 23:32:18 10° NNW 23:37:47 46° ENE 23:39:38 34° ESE
CARTOSAT-1 3.4 23:39:20 62° SSE 23:40:02 90° NNW 23:44:23 10° NNW
COSMOS 2428 2.7 23:35:13 10° NNW 23:40:55 76° ENE 23:42:36 47° SE
USA 234 4.5 23:34:58 10° NE 23:41:04 43° NNW 23:47:10 10° W
SL-16 R/B 4.5 23:38:40 10° NNE 23:41:23 13° NE 23:44:05 10° ENE
MINOTAUR IV R/B 4.5 23:41:36 60° S 23:42:20 75° ESE 23:46:56 10° NNE
CZ-2C R/B 3.3 23:41:20 45° SE 23:42:48 63° ENE 23:48:21 10° N
Lacrosse 5 rocket 1.5 23:38:46 10° NW 23:42:59 58° SW 23:43:05 58° SW
BREEZE M DEB (TANK) 3.8 23:42:13 10° WNW 23:47:39 26° WSW 23:47:56 26° SW
Cosmos 2026 Rocket 4.2 23:41:41 10° N 23:47:44 55° E 23:49:22 43° SE
Spot 1 3.9 23:47:20 62° SW 23:47:47 69° WSW 23:51:51 10° NNW
ISS -0.6 23:48:50 10° NW 23:50:33 13° N 23:52:16 10° NNE
Cosmos 2279 Rocket 4.4 23:50:11 39° ESE 23:51:23 43° E 23:57:12 10° NNE
Cosmos 1025 Rocket 3.6 23:51:30 40° SW 23:52:44 54° W 23:57:02 10° N
